sat.trackr.live / text

‹ back to catalog

STARLINK-36479

NORAD 67352 · 2026-003U

PAYLOAD ACTIVE UNKNOWN

§ Identity

Operator
Country
US
Launch date
2026-01-09
Launch site
AFETR
Launch vehicle
Mass (kg)
RCS (m²)

Purposes: comms

External: N2YO · Heavens-Above · Gunter

§ Orbital elements

Epoch: 2026-05-25T00:40:38.339328Z

Period
94.27 min
Inclination
43.0014°
Eccentricity
0.0001416
Mean motion
15.27595074 rev/d
Perigee alt
482.0 km
Apogee alt
484.0 km
Semi-major
6,861.1 km
B*
9.0870e-4
RAAN
155.5344°
Arg perigee
268.2271°
Mean anomaly
91.8419°
Rev number
2,050

§ Raw data

STARLINK-364791 67352U 26003U   26145.02822152  .00024839  00000+0  90870-3 0  99962 67352  43.0014 155.5344 0001416 268.2271  91.8419 15.27595074 20508

JSON: /api/v1/satellites/67352 · /tle

For live sub-satellite position, see the globe view (requires WebGL).

§ Visibility from observer

Set your observer location to see the next 7 days of passes ≥ 10°. The values pass through the URL so the page stays shareable.

No JS? Fill the form by hand. The geolocation button needs JavaScript.